STARLINK-34747 (64947 NORAD) Tracking and Keplerian Element Data

This shows tracking and keplerian element data for the satellite.

Feedback or suggestion? Click here.




ElementValue
Catalog64947
NameSTARLINK-34747
Epoch Orbit2323
Epoch Day353.12905547
Epoch Year2025
RAAN214.6781
Inclination97.6011
Eccentricity0.0002354
Argument of Perigee84.885
Mean Anonmoly275.2645
Mean Motion15.0565039
Decay Rate3.21E-05
L11 64947U 25158R 25353.12905547 .00003210 00000+0 22660-3 0 9996
L22 64947 97.6011 214.6781 0002354 84.8850 275.2645 15.05650390 23237



Live tracking and technical data element details for STARLINK-34747 (NORAD 64947). STARLINK-34747 can be tracked NOW for your location showing map with azimuth and elevation plus other details from your city location.







IsCatalogInMostPopularTable: catalog: 64947, numindb: 4
Update: records affected: 1



GetName: 64947 STARLINK-34747

Hit Count: updated at: Mon, 09 Feb 2026 09:30:20 GMT